CW3367 Valrico FL US current weather conditions

sailwx.info

Wind from 074

Air temperature 23.9° C
Dewpoint 21.6° C

Last reported at 2019-Jul-17 04:09 UTC.
Time now 2019-Jul-17 04:36 UTC

Location: N 27°55' W 082°14'.
View on Google Maps.

See reports from other nearby stations

  
Tides and Currents Weather Stations Pressure Air Temp Water Temp Dewpoint Dewpoint Depression Visibility Wind Speed Wind Dir Waves Ship Positions
date/time (UTC)wind fromknots sea level pressurealtimeterstation pressurevisibilityair tempwater tempwave heightnotes
2019-Jul-17 04:09 074 23.9
2019-Jul-17 04:04 075 23.9
2019-Jul-17 03:59 075 23.9
2019-Jul-17 03:54 074 23.9
2019-Jul-17 03:49 075 23.9
2019-Jul-17 03:44 075 23.9
2019-Jul-17 03:39 075 23.9
2019-Jul-17 03:34 075 23.9
2019-Jul-17 03:29 074 0 gusting 1 23.9
2019-Jul-17 03:24 074 23.9
2019-Jul-17 03:19 074 23.9
2019-Jul-17 03:14 075 23.9
2019-Jul-17 03:09 075 0 gusting 2 23.9
2019-Jul-17 03:04 075 23.9
2019-Jul-17 02:59 075 0 gusting 2 23.9
2019-Jul-17 02:54 075 23.9
2019-Jul-17 02:49 013 0 gusting 2 23.9
2019-Jul-17 02:44 344 0 gusting 2 23.9
2019-Jul-17 02:39 343 23.9
2019-Jul-17 02:34 343 23.9
2019-Jul-17 02:29 323 23.9
2019-Jul-17 02:24 323 23.9
2019-Jul-17 02:19 323 23.9
2019-Jul-17 02:14 323 23.9
2019-Jul-17 02:09 311 23.9
2019-Jul-17 02:04 254 23.9
2019-Jul-17 01:59 254 23.9
2019-Jul-17 01:54 254 23.9
2019-Jul-17 01:49 254 23.9
2019-Jul-17 01:44 254 0 gusting 2 23.9
2019-Jul-17 01:39 253 0 gusting 2 24.4
2019-Jul-17 01:34 290 24.4
2019-Jul-17 01:29 124 0 gusting 2 24.4
2019-Jul-17 01:24 107 24.4
2019-Jul-17 01:19 104 0 gusting 3 24.4
2019-Jul-17 01:14 067 0 gusting 3 24.4
2019-Jul-17 01:09 086 0 gusting 3 24.4
2019-Jul-17 01:04 125 1 gusting 1 25.0
2019-Jul-17 00:59 125 25.0
2019-Jul-17 00:54 125 25.0
2019-Jul-17 00:49 125 25.6
2019-Jul-17 00:44 147 1 gusting 5 25.6
2019-Jul-17 00:39 150 1 gusting 8 26.1
2019-Jul-17 00:34 197 2 gusting 10 26.1
2019-Jul-17 00:29 211 1 gusting 10 26.1
2019-Jul-17 00:24 188 7 gusting 7 26.1
2019-Jul-17 00:19 139 0 gusting 3 26.1
2019-Jul-17 00:14 005 0 gusting 2 26.7
2019-Jul-17 00:09 294 26.7
2019-Jul-17 00:04 291 26.7
2019-Jul-16 23:59 274 2 gusting 5 26.7
2019-Jul-16 23:54 296 0 gusting 5 26.7
2019-Jul-16 23:49 239 1 gusting 5 27.2
2019-Jul-16 23:44 250 27.8
2019-Jul-16 23:39 271 1 gusting 6 27.8
2019-Jul-16 23:34 300 2 gusting 6 27.8
2019-Jul-16 23:29 284 0 gusting 2 28.3
2019-Jul-16 23:24 284 1 gusting 6 28.3
2019-Jul-16 23:19 284 2 gusting 6 28.9
2019-Jul-16 23:14 295 4 gusting 6 28.9
2019-Jul-16 23:09 257 3 gusting 3 28.9
2019-Jul-16 23:04 051 29.4
2019-Jul-16 22:59 316 0 gusting 6 29.4
2019-Jul-16 22:54 227 0 gusting 6 29.4
2019-Jul-16 22:49 271 1 gusting 6 30.0
2019-Jul-16 22:44 256 3 gusting 7 30.0
2019-Jul-16 22:39 246 3 gusting 8 30.0
2019-Jul-16 22:34 295 4 gusting 8 30.6
2019-Jul-16 22:29 271 2 gusting 4 30.6
2019-Jul-16 22:24 242 1 gusting 2 30.6
2019-Jul-16 22:19 242 31.1
2019-Jul-16 22:14 240 2 gusting 4 31.1
2019-Jul-16 22:09 267 1 gusting 5 31.1
2019-Jul-16 22:04 163 1 gusting 5 31.7
2019-Jul-16 21:59 154 1 gusting 5 32.2
2019-Jul-16 21:54 194 0 gusting 7 32.2
2019-Jul-16 21:49 213 1 gusting 8 33.3
2019-Jul-16 21:44 221 2 gusting 8 33.9
2019-Jul-16 21:39 211 1 gusting 6 35.0
2019-Jul-16 21:34 051 0 gusting 7 36.1
2019-Jul-16 21:29 059 2 gusting 7 36.1
2019-Jul-16 21:24 087 0 gusting 6 36.1
2019-Jul-16 21:19 060 2 gusting 3 36.1
2019-Jul-16 21:14 138 36.1
2019-Jul-16 21:09 098 0 gusting 4 36.1
2019-Jul-16 21:04 073 4 gusting 5 36.7
2019-Jul-16 20:59 096 0 gusting 5 36.7
2019-Jul-16 20:54 080 3 gusting 6 36.7
2019-Jul-16 20:49 079 1 gusting 6 36.7
2019-Jul-16 20:44 071 3 gusting 9 37.2
2019-Jul-16 20:39 054 5 gusting 9 37.2
2019-Jul-16 20:34 051 36.7
2019-Jul-16 20:29 056 1 gusting 3 36.7
2019-Jul-16 20:24 070 0 gusting 3 36.7
2019-Jul-16 20:19 047 0 gusting 6 36.7
2019-Jul-16 20:14 063 0 gusting 6 36.1
2019-Jul-16 20:09 098 1 gusting 4 36.1
2019-Jul-16 20:04 173 1 gusting 3 36.1
2019-Jul-16 19:59 069 35.6
2019-Jul-16 19:54 084 1 gusting 9 35.6
2019-Jul-16 19:49 084 1 gusting 9 35.6
2019-Jul-16 19:44 048 4 gusting 6 35.6
2019-Jul-16 19:39 225 1 gusting 6 35.6
2019-Jul-16 19:34 097 35.6
2019-Jul-16 19:29 075 0 gusting 6 35.0
2019-Jul-16 19:24 063 35.0
2019-Jul-16 19:19 055 3 gusting 8 35.0
2019-Jul-16 19:14 055 3 gusting 6 35.6
2019-Jul-16 19:09 048 2 gusting 7 36.1
2019-Jul-16 19:04 060 4 gusting 7 35.6
2019-Jul-16 18:59 080 2 gusting 5 35.6
2019-Jul-16 18:54 059 3 gusting 4 35.0
2019-Jul-16 18:49 165 35.6
2019-Jul-16 18:44 070 0 gusting 7 36.1
2019-Jul-16 18:39 080 4 gusting 6 36.7
2019-Jul-16 18:34 039 1 gusting 3 36.7
2019-Jul-16 18:29 034 36.7
2019-Jul-16 18:24 015 1 gusting 8 36.1
2019-Jul-16 18:19 058 1 gusting 7 36.1
2019-Jul-16 18:14 027 3 gusting 6 35.6
2019-Jul-16 18:09 058 2 gusting 6 35.0
2019-Jul-16 18:04 094 5 gusting 6 35.0
2019-Jul-16 17:59 141 2 gusting 8 35.0
2019-Jul-16 17:54 147 2 gusting 9 35.0
2019-Jul-16 17:49 046 3 gusting 9 35.0
2019-Jul-16 17:44 161 1 gusting 7 35.0
2019-Jul-16 17:39 056 1 gusting 6 34.4
2019-Jul-16 17:34 215 2 gusting 6 35.0
2019-Jul-16 17:29 111 3 gusting 6 35.0
2019-Jul-16 17:24 089 0 gusting 6 34.4
2019-Jul-16 17:19 086 1 gusting 6 35.0
2019-Jul-16 17:14 096 0 gusting 6 34.4
2019-Jul-16 17:09 078 3 gusting 6 34.4
2019-Jul-16 17:04 101 2 gusting 5 34.4
2019-Jul-16 16:59 103 34.4
2019-Jul-16 16:54 146 3 gusting 6 34.4
2019-Jul-16 16:49 018 33.9
2019-Jul-16 16:44 111 1 gusting 8 33.9
2019-Jul-16 16:39 085 3 gusting 8 33.9
2019-Jul-16 16:34 168 33.9
2019-Jul-16 16:29 032 2 gusting 7 33.3
2019-Jul-16 16:24 103 3 gusting 6 33.9
2019-Jul-16 16:19 063 2 gusting 6 33.9
2019-Jul-16 16:14 027 2 gusting 6 33.9
2019-Jul-16 16:09 090 1 gusting 6 33.3
2019-Jul-16 16:04 055 33.3
2019-Jul-16 15:59 075 2 gusting 8 32.8
2019-Jul-16 15:54 060 0 gusting 8 33.3
2019-Jul-16 15:49 067 2 gusting 6 33.3
2019-Jul-16 15:44 066 2 gusting 3 33.3
2019-Jul-16 15:39 203 33.3
2019-Jul-16 15:34 096 0 gusting 6 33.3
2019-Jul-16 15:29 057 3 gusting 6 33.3
2019-Jul-16 15:24 063 33.3
2019-Jul-16 15:19 144 0 gusting 3 32.8
2019-Jul-16 15:14 061 2 gusting 3 32.8
2019-Jul-16 15:09 060 1 gusting 4 32.2
2019-Jul-16 15:04 055 2 gusting 5 32.2
2019-Jul-16 14:59 196 31.7
2019-Jul-16 14:54 086 31.7
2019-Jul-16 14:49 134 31.7
2019-Jul-16 14:44 217 0 gusting 4 31.7
2019-Jul-16 14:39 092 2 gusting 4 31.1
2019-Jul-16 14:34 071 2 gusting 7 31.1
2019-Jul-16 14:29 117 0 gusting 7 31.1
2019-Jul-16 14:24 153 0 gusting 4 30.6
2019-Jul-16 14:19 147 3 gusting 5 30.6
2019-Jul-16 14:14 126 1 gusting 5 30.6
2019-Jul-16 14:09 232 30.0
2019-Jul-16 14:04 101 1 gusting 3 30.0
2019-Jul-16 13:59 194 1 gusting 4 29.4
2019-Jul-16 13:54 190 29.4
2019-Jul-16 13:49 169 0 gusting 5 29.4
2019-Jul-16 13:44 216 0 gusting 6 28.9
2019-Jul-16 13:39 205 28.9
2019-Jul-16 13:34 217 2 gusting 7 28.9
2019-Jul-16 13:29 183 0 gusting 7 28.3
2019-Jul-16 13:24 167 2 gusting 6 28.3
2019-Jul-16 13:19 340 0 gusting 6 27.8
2019-Jul-16 13:14 185 1 gusting 6 27.8
2019-Jul-16 13:09 191 0 gusting 6 27.8
2019-Jul-16 13:04 199 1 gusting 5 27.2
2019-Jul-16 12:59 207 2 gusting 2 27.2
2019-Jul-16 12:54 219 26.7
2019-Jul-16 12:49 219 0 gusting 4 26.7
2019-Jul-16 12:44 170 0 gusting 3 26.1
2019-Jul-16 12:39 182 26.1
2019-Jul-16 12:34 130 25.6
2019-Jul-16 12:29 146 2 gusting 5 25.6
2019-Jul-16 12:24 205 25.6
2019-Jul-16 12:19 205 0 gusting 3 25.0
2019-Jul-16 12:14 194 0 gusting 3 25.0
2019-Jul-16 12:09 065 25.0
2019-Jul-16 12:04 065 25.0
2019-Jul-16 11:59 065 24.4
2019-Jul-16 11:54 065 24.4
2019-Jul-16 11:49 065 24.4
2019-Jul-16 11:44 065 24.4
2019-Jul-16 11:39 065 24.4
2019-Jul-16 11:34 065 23.9
2019-Jul-16 11:29 065 1 gusting 1 23.9
2019-Jul-16 11:24 065 23.9
2019-Jul-16 11:19 065 23.9
2019-Jul-16 11:14 065 0 gusting 2 23.9
2019-Jul-16 11:09 026 23.9
2019-Jul-16 11:04 026 23.9
2019-Jul-16 10:59 026 23.9
2019-Jul-16 10:54 026 23.9
2019-Jul-16 10:49 026 23.9
2019-Jul-16 10:44 026 23.9
2019-Jul-16 10:39 040 23.9
2019-Jul-16 10:34 040 23.9
2019-Jul-16 10:29 040 23.9
2019-Jul-16 10:24 040 23.9
2019-Jul-16 10:19 040 23.9
2019-Jul-16 10:14 040 23.9
2019-Jul-16 10:09 040 23.9
2019-Jul-16 10:04 040 23.9
2019-Jul-16 09:59 040 23.9
2019-Jul-16 09:54 040 23.9
2019-Jul-16 09:49 040 23.9
2019-Jul-16 09:44 040 23.9
2019-Jul-16 09:39 040 23.9
2019-Jul-16 09:34 040 23.9
2019-Jul-16 09:29 040 23.9
2019-Jul-16 09:24 040 23.9
2019-Jul-16 09:19 040 24.4
2019-Jul-16 09:14 040 24.4
2019-Jul-16 09:09 040 24.4
2019-Jul-16 09:04 040 0 gusting 1 24.4
2019-Jul-16 08:59 040 24.4
2019-Jul-16 08:54 040 24.4
2019-Jul-16 08:49 040 24.4
2019-Jul-16 08:44 040 24.4
2019-Jul-16 08:39 040 24.4
2019-Jul-16 08:34 040 24.4
2019-Jul-16 08:29 040 24.4
2019-Jul-16 08:24 040 24.4
2019-Jul-16 08:19 040 24.4
2019-Jul-16 08:14 040 24.4
2019-Jul-16 08:09 040 24.4
2019-Jul-16 08:04 040 24.4
2019-Jul-16 07:59 040 24.4
2019-Jul-16 07:54 040 24.4
2019-Jul-16 07:49 040 24.4
2019-Jul-16 07:44 040 24.4
2019-Jul-16 07:39 040 24.4
2019-Jul-16 07:34 040 24.4
2019-Jul-16 07:29 040 1 gusting 1 24.4
2019-Jul-16 07:24 040 0 gusting 1 24.4
2019-Jul-16 07:19 040 24.4
2019-Jul-16 07:14 040 0 gusting 2 24.4
2019-Jul-16 07:09 040 24.4
2019-Jul-16 07:04 040 24.4
2019-Jul-16 06:59 040 24.4
2019-Jul-16 06:54 040 24.4
2019-Jul-16 06:49 039 24.4
2019-Jul-16 06:44 039 1 gusting 2 24.4
2019-Jul-16 06:39 039 0 gusting 2 24.4
2019-Jul-16 06:34 031 24.4
2019-Jul-16 06:29 031 25.0
2019-Jul-16 06:24 031 25.0
2019-Jul-16 06:19 031 25.0
2019-Jul-16 06:14 031 25.0
2019-Jul-16 06:09 031 25.0
2019-Jul-16 06:04 031 25.0
2019-Jul-16 05:59 031 25.0
2019-Jul-16 05:54 031 25.0
2019-Jul-16 05:49 031 25.0
2019-Jul-16 05:44 031 25.0
2019-Jul-16 05:39 031 25.0
2019-Jul-16 05:34 031 25.0
2019-Jul-16 05:29 031 25.0
2019-Jul-16 05:24 031 25.0
2019-Jul-16 05:19 031 25.0
2019-Jul-16 05:14 031 25.0
2019-Jul-16 05:09 031 25.0
2019-Jul-16 05:04 031 25.0
2019-Jul-16 04:59 031 25.0
2019-Jul-16 04:54 031 25.0
2019-Jul-16 04:49 031 25.0
2019-Jul-16 04:44 031 25.0
2019-Jul-16 04:39 031 25.6
2019-Jul-16 04:34 031 25.6
2019-Jul-16 04:29 031 25.6
2019-Jul-16 04:24 031 25.6
2019-Jul-16 04:19 031 25.6
2019-Jul-16 04:14 031 25.6
2019-Jul-16 04:09 031 25.6
2019-Jul-16 04:04 031 25.6
2019-Jul-16 03:59 031 25.6
2019-Jul-16 03:54 031 25.6
2019-Jul-16 03:49 031 25.6
2019-Jul-16 03:44 031 25.6
2019-Jul-16 03:39 031 25.6
2019-Jul-16 03:34 031 25.6
2019-Jul-16 03:29 031 26.1
2019-Jul-16 03:24 031 26.1
2019-Jul-16 03:19 031 26.1
2019-Jul-16 03:14 031 26.1
2019-Jul-16 03:09 031 26.1
2019-Jul-16 03:04 031 26.1
2019-Jul-16 02:59 031 26.1
2019-Jul-16 02:54 031 26.1
2019-Jul-16 02:49 031 26.1
2019-Jul-16 02:44 031 26.1
2019-Jul-16 02:39 031 26.1
2019-Jul-16 02:34 031 26.1
2019-Jul-16 02:29 031 26.1
2019-Jul-16 02:24 031 26.1
2019-Jul-16 02:19 031 26.1
2019-Jul-16 02:14 323 0 gusting 0 26.1
2019-Jul-16 02:09 323 26.1
2019-Jul-16 02:04 323 26.1
2019-Jul-16 01:59 323 26.7
2019-Jul-16 01:54 323 26.7
2019-Jul-16 01:49 323 26.7
2019-Jul-16 01:44 323 26.7
2019-Jul-16 01:39 323 26.7
2019-Jul-16 01:34 323 26.7
2019-Jul-16 01:29 323 26.7
2019-Jul-16 01:24 323 0 gusting 1 26.7
2019-Jul-16 01:19 323 26.7
2019-Jul-16 01:14 323 0 gusting 1 26.7
2019-Jul-16 01:09 323 26.7
2019-Jul-16 01:04 323 26.7
2019-Jul-16 00:59 323 26.7
2019-Jul-16 00:54 323 26.7
2019-Jul-16 00:49 323 26.7
2019-Jul-16 00:44 323 26.7
2019-Jul-16 00:39 323 26.7
2019-Jul-16 00:34 323 27.2
2019-Jul-16 00:29 323 27.2
2019-Jul-16 00:24 323 27.2
2019-Jul-16 00:19 323 1 gusting 2 27.2
2019-Jul-16 00:14 323 0 gusting 1 27.2
2019-Jul-16 00:09 323 0 gusting 1 27.2
2019-Jul-16 00:04 323 27.2
2019-Jul-15 23:59 323 0 gusting 1 27.2
2019-Jul-15 23:54 323 27.2
2019-Jul-15 23:49 333 0 gusting 6 27.2
2019-Jul-15 23:44 290 2 gusting 6 27.2
2019-Jul-15 23:39 306 27.8
2019-Jul-15 23:34 275 1 gusting 6 27.8
2019-Jul-15 23:29 289 2 gusting 6 27.8
2019-Jul-15 23:24 252 1 gusting 3 28.3
2019-Jul-15 23:19 056 28.3
2019-Jul-15 23:14 005 2 gusting 3 28.3
2019-Jul-15 23:09 319 2 gusting 3 28.9
2019-Jul-15 23:04 305 28.9
2019-Jul-15 22:59 311 0 gusting 5 28.9
2019-Jul-15 22:54 295 3 gusting 6 28.9
2019-Jul-15 22:49 297 28.9
2019-Jul-15 22:44 274 2 gusting 7 29.4
2019-Jul-15 22:39 292 3 gusting 7 29.4
2019-Jul-15 22:34 279 3 gusting 5 29.4
2019-Jul-15 22:29 211 0 gusting 2 29.4
2019-Jul-15 22:24 135 29.4
2019-Jul-15 22:19 135 29.4
2019-Jul-15 22:14 135 30.0
2019-Jul-15 22:09 142 0 gusting 3 30.0
2019-Jul-15 22:04 179 0 gusting 3 30.0
2019-Jul-15 21:59 194 0 gusting 3 30.0
2019-Jul-15 21:54 022 30.6
2019-Jul-15 21:49 069 0 gusting 7 30.6
2019-Jul-15 21:44 065 1 gusting 6 30.6
2019-Jul-15 21:39 058 30.6
2019-Jul-15 21:34 070 5 gusting 8 30.6
2019-Jul-15 21:29 040 3 gusting 13 30.6
2019-Jul-15 21:24 063 3 gusting 13 31.1
2019-Jul-15 21:19 057 6 gusting 12 31.7
2019-Jul-15 21:14 057 8 gusting 12 32.2
2019-Jul-15 21:09 107 5 gusting 12 32.8
2019-Jul-15 21:04 093 8 gusting 12 33.9
2019-Jul-15 20:59 069 5 gusting 6 34.4
2019-Jul-15 20:54 095 1 gusting 6 34.4
2019-Jul-15 20:49 205 2 gusting 5 34.4
2019-Jul-15 20:44 194 0 gusting 5 33.9
2019-Jul-15 20:39 197 3 gusting 6 33.9
2019-Jul-15 20:34 209 3 gusting 6 33.9
2019-Jul-15 20:29 215 1 gusting 4 34.4
2019-Jul-15 20:24 157 1 gusting 5 35.0
2019-Jul-15 20:19 212 2 gusting 5 35.0
2019-Jul-15 20:14 183 2 gusting 4 35.6
2019-Jul-15 20:09 022 2 gusting 4 35.6
2019-Jul-15 20:04 155 0 gusting 7 36.1
2019-Jul-15 19:59 059 3 gusting 7 36.1
2019-Jul-15 19:54 048 1 gusting 6 36.1
2019-Jul-15 19:49 092 1 gusting 6 36.1
2019-Jul-15 19:44 086 1 gusting 6 36.1
2019-Jul-15 19:39 047 1 gusting 7 36.1
2019-Jul-15 19:34 085 0 gusting 7 36.1
2019-Jul-15 19:29 063 3 gusting 6 36.1
2019-Jul-15 19:24 059 3 gusting 6 36.1
2019-Jul-15 19:19 103 1 gusting 5 36.1
2019-Jul-15 19:14 178 35.6
2019-Jul-15 19:09 139 0 gusting 6 35.6
2019-Jul-15 19:04 058 2 gusting 6 35.6
2019-Jul-15 18:59 098 6 gusting 6 35.6
2019-Jul-15 18:54 113 6 gusting 6 35.6
2019-Jul-15 18:49 092 5 gusting 7 35.6
2019-Jul-15 18:44 061 2 gusting 7 35.0
2019-Jul-15 18:39 080 0 gusting 3 35.0
2019-Jul-15 18:34 056 0 gusting 6 35.0
2019-Jul-15 18:29 061 1 gusting 6 35.0
2019-Jul-15 18:24 083 0 gusting 6 35.0
2019-Jul-15 18:19 193 0 gusting 7 35.0
2019-Jul-15 18:14 222 1 gusting 7 35.0
2019-Jul-15 18:09 023 2 gusting 5 35.0
2019-Jul-15 18:04 072 1 gusting 5 35.0
2019-Jul-15 17:59 063 4 gusting 4 35.0
2019-Jul-15 17:54 134 34.4
2019-Jul-15 17:49 059 1 gusting 7 34.4
2019-Jul-15 17:44 074 1 gusting 7 34.4
2019-Jul-15 17:39 053 3 gusting 6 34.4
2019-Jul-15 17:34 036 0 gusting 3 34.4
2019-Jul-15 17:29 092 0 gusting 6 34.4
2019-Jul-15 17:24 055 34.4
2019-Jul-15 17:19 058 1 gusting 6 33.9
2019-Jul-15 17:14 069 0 gusting 6 33.9
2019-Jul-15 17:09 084 2 gusting 6 34.4
2019-Jul-15 17:04 090 1 gusting 4 34.4
2019-Jul-15 16:59 141 1 gusting 4 34.4
2019-Jul-15 16:54 209 3 gusting 4 34.4
2019-Jul-15 16:49 211 1 gusting 4 33.9
2019-Jul-15 16:44 069 1 gusting 6 33.9
2019-Jul-15 16:39 097 33.9
2019-Jul-15 16:34 102 6 gusting 6 33.3
2019-Jul-15 16:29 157 0 gusting 5 33.3
2019-Jul-15 16:24 144 33.3
2019-Jul-15 16:19 121 1 gusting 3 33.3
2019-Jul-15 16:14 114 1 gusting 3 33.3
2019-Jul-15 16:09 145 2 gusting 5 33.3
2019-Jul-15 16:04 288 33.3
2019-Jul-15 15:59 202 0 gusting 4 33.3
2019-Jul-15 15:54 174 0 gusting 7 33.3
2019-Jul-15 15:49 107 0 gusting 7 33.3
2019-Jul-15 15:44 057 1 gusting 5 33.3
2019-Jul-15 15:39 090 0 gusting 5 33.3
2019-Jul-15 15:34 059 4 gusting 5 33.3
2019-Jul-15 15:29 198 33.3
2019-Jul-15 15:24 056 2 gusting 6 33.3
2019-Jul-15 15:19 092 3 gusting 6 32.8
2019-Jul-15 15:14 086 2 gusting 5 32.8
2019-Jul-15 15:09 071 1 gusting 6 32.8
2019-Jul-15 15:04 074 2 gusting 6 32.8
2019-Jul-15 14:59 087 0 gusting 6 32.2
2019-Jul-15 14:54 078 3 gusting 6 32.2
2019-Jul-15 14:49 205 0 gusting 6 32.2
2019-Jul-15 14:44 065 1 gusting 6 32.2
2019-Jul-15 14:39 117 1 gusting 5 31.7
2019-Jul-15 14:34 092 0 gusting 3 31.7
2019-Jul-15 14:29 195 1 gusting 3 31.1
2019-Jul-15 14:24 095 31.1
2019-Jul-15 14:19 195 0 gusting 3 30.6
2019-Jul-15 14:14 085 0 gusting 3 30.6
2019-Jul-15 14:09 201 30.6
2019-Jul-15 14:04 205 30.0
2019-Jul-15 13:59 109 30.0
2019-Jul-15 13:54 065 0 gusting 6 30.0
2019-Jul-15 13:49 157 1 gusting 6 29.4
2019-Jul-15 13:44 062 3 gusting 3 29.4
2019-Jul-15 13:39 159 0 gusting 4 28.9
2019-Jul-15 13:34 202 3 gusting 5 28.9
2019-Jul-15 13:29 096 0 gusting 5 28.3
2019-Jul-15 13:24 193 28.3
2019-Jul-15 13:19 167 2 gusting 4 28.3
2019-Jul-15 13:14 199 27.8
2019-Jul-15 13:09 208 0 gusting 3 27.8
2019-Jul-15 13:04 192 1 gusting 3 27.8
2019-Jul-15 12:59 185 1 gusting 2 27.2
2019-Jul-15 12:54 143 27.2
2019-Jul-15 12:49 101 0 gusting 2 26.7
2019-Jul-15 12:44 081 26.7
2019-Jul-15 12:39 072 26.1
2019-Jul-15 12:34 072 26.1
2019-Jul-15 12:29 107 0 gusting 3 25.6
2019-Jul-15 12:24 086 1 gusting 3 25.6
2019-Jul-15 12:19 115 25.6
2019-Jul-15 12:14 115 25.0
2019-Jul-15 12:09 116 2 gusting 2 25.0
2019-Jul-15 12:04 144 24.4
2019-Jul-15 11:59 144 24.4
2019-Jul-15 11:54 144 24.4
2019-Jul-15 11:49 144 23.9
2019-Jul-15 11:44 144 23.9
2019-Jul-15 11:39 144 23.3
2019-Jul-15 11:34 144 23.3
2019-Jul-15 11:29 144 23.3
2019-Jul-15 11:24 144 23.3
2019-Jul-15 11:19 144 23.3
2019-Jul-15 11:14 144 23.3
2019-Jul-15 11:09 144 23.3
2019-Jul-15 11:04 144 0 gusting 0 22.8
2019-Jul-15 10:59 144 22.8
2019-Jul-15 10:54 144 22.8
2019-Jul-15 10:49 144 23.3
2019-Jul-15 10:44 144 23.3
2019-Jul-15 10:39 144 23.3
2019-Jul-15 10:34 144 23.3
2019-Jul-15 10:29 144 23.3
2019-Jul-15 10:24 144 23.3
2019-Jul-15 10:19 144 23.3
2019-Jul-15 10:14 144 23.3
2019-Jul-15 10:09 144 23.3
2019-Jul-15 10:04 144 23.3
2019-Jul-15 09:59 144 23.3
2019-Jul-15 09:54 144 23.3
2019-Jul-15 09:49 144 23.3
2019-Jul-15 09:44 144 23.3
2019-Jul-15 09:39 144 23.3
2019-Jul-15 09:34 144 23.3
2019-Jul-15 09:29 144 23.3
2019-Jul-15 09:24 144 23.3
2019-Jul-15 09:19 144 23.3
2019-Jul-15 09:14 144 23.9
2019-Jul-15 09:09 144 23.9
2019-Jul-15 09:04 144 0 gusting 0 23.9
2019-Jul-15 08:59 144 0 gusting 0 23.9
2019-Jul-15 08:54 144 23.9
2019-Jul-15 08:49 144 23.9
2019-Jul-15 08:44 144 23.9
2019-Jul-15 08:39 144 0 gusting 1 23.9
2019-Jul-15 08:34 144 23.9
2019-Jul-15 08:29 144 1 gusting 1 23.9
2019-Jul-15 08:24 144 0 gusting 1 23.9
2019-Jul-15 08:19 144 23.9
2019-Jul-15 08:14 144 23.9
2019-Jul-15 08:09 144 24.4
2019-Jul-15 08:04 144 24.4
2019-Jul-15 07:59 144 24.4
2019-Jul-15 07:54 144 0 gusting 1 24.4
2019-Jul-15 07:49 144 24.4
2019-Jul-15 07:44 144 24.4
2019-Jul-15 07:39 144 24.4
2019-Jul-15 07:34 144 24.4
2019-Jul-15 07:29 144 24.4
2019-Jul-15 07:24 144 24.4
2019-Jul-15 07:19 144 0 gusting 1 24.4
2019-Jul-15 07:14 144 0 gusting 2 24.4
2019-Jul-15 07:09 144 0 gusting 2 25.0
2019-Jul-15 07:04 144 0 gusting 1 25.0
2019-Jul-15 06:59 144 0 gusting 1 25.0
2019-Jul-15 06:54 152 25.0
2019-Jul-15 06:49 152 25.0
2019-Jul-15 06:44 152 25.0
2019-Jul-15 06:39 152 25.0
2019-Jul-15 06:34 152 25.0
2019-Jul-15 06:29 111 25.6
2019-Jul-15 06:24 111 25.6
2019-Jul-15 06:19 098 0 gusting 0 25.6
2019-Jul-15 06:14 098 25.6
2019-Jul-15 06:09 098 25.6
2019-Jul-15 06:04 098 25.6
2019-Jul-15 05:59 098 25.6
2019-Jul-15 05:54 098 25.6
2019-Jul-15 05:49 098 25.6
2019-Jul-15 05:44 111 0 gusting 1 25.6
2019-Jul-15 05:39 114 26.1
2019-Jul-15 05:34 165 0 gusting 5 26.1
2019-Jul-15 05:29 081 2 gusting 3 26.1
2019-Jul-15 05:24 064 26.1
2019-Jul-15 05:19 161 3 gusting 3 26.1
2019-Jul-15 05:14 090 0 gusting 4 26.1
2019-Jul-15 05:09 049 0 gusting 4 26.1
2019-Jul-15 05:04 102 1 gusting 4 26.1
2019-Jul-15 04:59 080 0 gusting 3 26.1
2019-Jul-15 04:54 103 26.1
2019-Jul-15 04:49 084 0 gusting 1 26.1
2019-Jul-15 04:44 084 0 gusting 1 26.1
2019-Jul-15 04:39 067 0 gusting 2 26.7
2019-Jul-15 04:34 113 0 gusting 2 26.7
2019-Jul-15 04:29 101 26.7
2019-Jul-15 04:24 084 26.7
2019-Jul-15 04:19 084 26.7
2019-Jul-15 04:14 084 26.7
2019-Jul-15 04:09 083 26.7
2019-Jul-15 04:04 103 26.7